Tracking 33831 objects as of 16-Apr-2026
HD Live streaming from Space Station
objects crossing your sky now

COSMOS 970 DEB

Track COSMOS 970 DEB now!
10-day predictions


NORAD ID: 10882
Int'l Code: 1977-121AD
Perigee: 885.3 km
Apogee: 1,074.9 km
Inclination: 65.8 °
Period: 104.5 minutes
Semi major axis: 7351 km
RCS: 0.0585 m2 (small)
Launch date: December 21, 1977
Source: Commonwealth of Independent States (former USSR) (CIS)
Launch site: TYURATAM MISSILE AND SPACE COMPLEX (TTMTR)

Note: This is SATELLITE DEBRIS
Your satellite tracking list
Your tracking list is empty




NASA's NSSDC Master Catalog

Two Line Element Set (TLE):
1 10882U 77121AD  26106.25148600  .00000218  00000-0  28209-3 0  9993
2 10882  65.8238 185.5370 0128955 157.2849 203.3994 13.77454679417867
Source of the keplerian elements: AFSPC